| time (UTC) | temp F | wind direction | speed knots | gust knots | rain 1hr in | rain 24hr in | rain mn in | humidity % | barometer mb |
| 20260904234018 | 75 | 0.0 | 0.0 | 0.00 | 0.00 | 0.00 | 49 | 1016.6 | |
| 20260904233026 | 76 | 0.0 | 0.0 | 0.00 | 0.00 | 0.00 | 49 | 1016.6 | |
| 20260904232018 | 76 | 0.0 | 0.0 | 0.00 | 0.00 | 0.00 | 49 | 1016.6 | |
| 20260904231026 | 77 | 0.0 | 0.0 | 0.00 | 0.00 | 0.00 | 48 | 1016.7 | |
| 20260904230018 | 77 | 0.0 | 0.0 | 0.00 | 0.00 | 0.00 | 47 | 1016.8 | |
| 20260904225026 | 77 | 0.0 | 0.0 | 0.00 | 0.00 | 0.00 | 46 | 1016.9 | |
| 20260904224018 | 78 | 0.0 | 0.0 | 0.00 | 0.00 | 0.00 | 46 | 1017.0 | |
| 20260904223026 | 78 | 0.0 | 0.0 | 0.00 | 0.00 | 0.00 | 46 | 1017.0 | |
| 20260904222018 | 78 | 0.0 | 0.0 | 0.00 | 0.00 | 0.00 | 45 | 1017.0 | |
| 20260904221026 | 79 | 141 | 0.0 | 1.7 | 0.00 | 0.00 | 0.00 | 45 | 1017.0 |
| 20260904220018 | 79 | 124 | 0.9 | 4.3 | 0.00 | 0.00 | 0.00 | 44 | 1017.0 |
| 20260904215028 | 79 | 120 | 0.9 | 4.3 | 0.00 | 0.00 | 0.00 | 44 | 1017.3 |
| 20260904214019 | 79 | 122 | 0.9 | 4.3 | 0.00 | 0.00 | 0.00 | 43 | 1017.2 |
| 20260904213027 | 79 | 127 | 0.9 | 7.0 | 0.00 | 0.00 | 0.00 | 42 | 1017.2 |
| 20260904212019 | 79 | 130 | 0.9 | 7.0 | 0.00 | 0.00 | 0.00 | 42 | 1017.2 |
| 20260904211027 | 79 | 126 | 0.9 | 4.3 | 0.00 | 0.00 | 0.00 | 42 | 1017.1 |
| 20260904210019 | 79 | 143 | 0.9 | 7.0 | 0.00 | 0.00 | 0.00 | 42 | 1017.0 |
| 20260904205029 | 79 | 133 | 0.0 | 4.3 | 0.00 | 0.00 | 0.00 | 42 | 1017.2 |
| 20260904204019 | 79 | 118 | 0.0 | 1.7 | 0.00 | 0.00 | 0.00 | 43 | 1017.3 |
| 20260904203027 | 79 | 134 | 0.0 | 4.3 | 0.00 | 0.00 | 0.00 | 44 | 1017.3 |
| 20260904202059 | 79 | 133 | 0.0 | 4.3 | 0.00 | 0.00 | 0.00 | 44 | 1017.2 |
| 20260904201027 | 79 | 137 | 0.9 | 4.3 | 0.00 | 0.00 | 0.00 | 44 | 1017.2 |
| 20260904200019 | 79 | 0.0 | 0.0 | 0.00 | 0.00 | 0.00 | 45 | 1017.3 | |
| 20260904195027 | 79 | 131 | 1.7 | 7.0 | 0.00 | 0.00 | 0.00 | 45 | 1017.3 |
| 20260904194039 | 79 | 113 | 1.7 | 7.0 | 0.00 | 0.00 | 0.00 | 46 | 1017.3 |
| 20260904193027 | 79 | 140 | 1.7 | 7.0 | 0.00 | 0.00 | 0.00 | 46 | 1017.3 |
| 20260904192020 | 79 | 84 | 0.0 | 4.3 | 0.00 | 0.00 | 0.00 | 46 | 1017.3 |
| 20260904191049 | 79 | 133 | 1.7 | 7.0 | 0.00 | 0.00 | 0.00 | 44 | 1017.3 |
| 20260904190019 | 79 | 0.0 | 0.0 | 0.00 | 0.00 | 0.00 | 45 | 1017.1 | |
| 20260904185027 | 80 | 0.0 | 0.0 | 0.00 | 0.00 | 0.00 | 46 | 1017.1 | |
| 20260904184019 | 80 | 0.0 | 0.0 | 0.00 | 0.00 | 0.00 | 46 | 1017.0 | |
| 20260904183027 | 81 | 142 | 0.0 | 1.7 | 0.00 | 0.00 | 0.00 | 46 | 1017.0 |
| 20260904182019 | 81 | 124 | 0.9 | 4.3 | 0.00 | 0.00 | 0.00 | 46 | 1017.0 |
| 20260904181027 | 81 | 132 | 1.7 | 4.3 | 0.00 | 0.00 | 0.00 | 45 | 1016.8 |
| 20260904180019 | 81 | 127 | 2.6 | 7.0 | 0.00 | 0.00 | 0.00 | 45 | 1016.6 |
| 20260904175027 | 82 | 131 | 0.9 | 7.0 | 0.00 | 0.00 | 0.00 | 45 | 1016.6 |
| 20260904174019 | 82 | 130 | 1.7 | 4.3 | 0.00 | 0.00 | 0.00 | 44 | 1016.5 |
| 20260904173027 | 82 | 120 | 1.7 | 7.0 | 0.00 | 0.00 | 0.00 | 43 | 1016.2 |
| 20260904172019 | 83 | 120 | 0.9 | 7.0 | 0.00 | 0.00 | 0.00 | 44 | 1016.0 |
| 20260904171027 | 83 | 148 | 0.9 | 4.3 | 0.00 | 0.00 | 0.00 | 45 | 1015.9 |
| 20260904170019 | 84 | 139 | 1.7 | 7.0 | 0.00 | 0.00 | 0.00 | 43 | 1015.7 |
| 20260904165027 | 84 | 23 | 2.6 | 8.7 | 0.00 | 0.00 | 0.00 | 39 | 1015.6 |
| 20260904164019 | 84 | 11 | 3.5 | 7.0 | 0.00 | 0.00 | 0.00 | 40 | 1015.6 |
| 20260904163027 | 85 | 11 | 6.1 | 17.4 | 0.00 | 0.00 | 0.00 | 39 | 1015.7 |
| 20260904162039 | 85 | 19 | 4.3 | 11.3 | 0.00 | 0.00 | 0.00 | 40 | 1015.6 |
| 20260904161027 | 85 | 25 | 4.3 | 11.3 | 0.00 | 0.00 | 0.00 | 40 | 1015.6 |
| 20260904160019 | 85 | 21 | 8.7 | 17.4 | 0.00 | 0.00 | 0.00 | 40 | 1015.5 |
| 20260904155027 | 86 | 12 | 9.6 | 20.0 | 0.00 | 0.00 | 0.00 | 39 | 1015.6 |
| 20260904154019 | 86 | 18 | 8.7 | 20.0 | 0.00 | 0.00 | 0.00 | 40 | 1015.6 |
| 20260904153027 | 86 | 18 | 8.7 | 20.0 | 0.00 | 0.00 | 0.00 | 39 | 1015.3 |
| 20260904152019 | 87 | 17 | 8.7 | 20.0 | 0.00 | 0.00 | 0.00 | 38 | 1015.3 |
| 20260904151027 | 87 | 23 | 9.6 | 20.0 | 0.00 | 0.00 | 0.00 | 40 | 1015.3 |
| 20260904150019 | 87 | 18 | 7.8 | 17.4 | 0.00 | 0.00 | 0.00 | 40 | 1015.3 |
| 20260904145047 | 87 | 4 | 7.0 | 20.0 | 0.00 | 0.00 | 0.00 | 39 | 1015.4 |
| 20260904144019 | 88 | 23 | 6.1 | 17.4 | 0.00 | 0.00 | 0.00 | 39 | 1015.3 |
| 20260904143027 | 88 | 19 | 8.7 | 17.4 | 0.00 | 0.00 | 0.00 | 38 | 1015.2 |
| 20260904142019 | 88 | 7 | 7.8 | 17.4 | 0.00 | 0.00 | 0.00 | 39 | 1015.2 |
| 20260904141027 | 88 | 49 | 5.2 | 13.0 | 0.00 | 0.00 | 0.00 | 39 | 1015.1 |
| 20260904140019 | 88 | 8 | 7.0 | 20.0 | 0.00 | 0.00 | 0.00 | 39 | 1015.2 |
| 20260904135027 | 88 | 10 | 7.8 | 20.0 | 0.00 | 0.00 | 0.00 | 40 | 1015.1 |
| 20260904134019 | 88 | 18 | 6.1 | 13.0 | 0.00 | 0.00 | 0.00 | 40 | 1015.1 |
| 20260904133027 | 88 | 19 | 7.0 | 17.4 | 0.00 | 0.00 | 0.00 | 40 | 1015.4 |
| 20260904132019 | 88 | 15 | 7.8 | 17.4 | 0.00 | 0.00 | 0.00 | 41 | 1015.3 |
| 20260904131027 | 89 | 45 | 4.3 | 13.0 | 0.00 | 0.00 | 0.00 | 40 | 1015.3 |
| 20260904130019 | 89 | 57 | 5.2 | 17.4 | 0.00 | 0.00 | 0.00 | 40 | 1015.3 |
| 20260904125027 | 88 | 87 | 6.1 | 14.8 | 0.00 | 0.00 | 0.00 | 40 | 1015.1 |
| 20260904124039 | 88 | 19 | 4.3 | 8.7 | 0.00 | 0.00 | 0.00 | 40 | 1015.2 |
| 20260904123026 | 88 | 34 | 5.2 | 13.0 | 0.00 | 0.00 | 0.00 | 41 | 1015.4 |
| 20260904122018 | 88 | 43 | 5.2 | 11.3 | 0.00 | 0.00 | 0.00 | 40 | 1015.4 |
| 20260904121046 | 88 | 67 | 7.0 | 20.0 | 0.00 | 0.00 | 0.00 | 40 | 1015.4 |
| 20260904120019 | 88 | 33 | 6.1 | 14.8 | 0.00 | 0.00 | 0.00 | 39 | 1015.7 |
| 20260904115046 | 88 | 8 | 7.8 | 17.4 | 0.00 | 0.00 | 0.00 | 39 | 1015.6 |
| 20260904114019 | 88 | 94 | 5.2 | 14.8 | 0.00 | 0.00 | 0.00 | 39 | 1015.6 |
| 20260904113027 | 87 | 115 | 5.2 | 13.0 | 0.00 | 0.00 | 0.00 | 38 | 1015.6 |
| 20260904112018 | 87 | 125 | 5.2 | 14.8 | 0.00 | 0.00 | 0.00 | 39 | 1015.7 |
| 20260904111027 | 87 | 22 | 7.0 | 17.4 | 0.00 | 0.00 | 0.00 | 41 | 1015.7 |
| 20260904110018 | 87 | 23 | 8.7 | 26.1 | 0.00 | 0.00 | 0.00 | 40 | 1015.8 |
| 20260904105027 | 87 | 13 | 8.7 | 21.7 | 0.00 | 0.00 | 0.00 | 42 | 1015.8 |
| 20260904104019 | 87 | 23 | 6.1 | 14.8 | 0.00 | 0.00 | 0.00 | 41 | 1015.8 |
| 20260904103047 | 87 | 24 | 7.0 | 20.0 | 0.00 | 0.00 | 0.00 | 42 | 1015.7 |
| 20260904102018 | 87 | 19 | 6.1 | 14.8 | 0.00 | 0.00 | 0.00 | 44 | 1015.7 |
| 20260904101046 | 87 | 27 | 6.1 | 17.4 | 0.00 | 0.00 | 0.00 | 44 | 1015.8 |
| 20260904100018 | 86 | 14 | 6.1 | 13.0 | 0.00 | 0.00 | 0.00 | 43 | 1015.9 |
| 20260904095026 | 85 | 40 | 6.1 | 20.0 | 0.00 | 0.00 | 0.00 | 44 | 1015.9 |
| 20260904094021 | 85 | 10 | 13.0 | 21.7 | 0.00 | 0.00 | 0.00 | 46 | 1015.9 |
| 20260904093047 | 85 | 5 | 8.7 | 17.4 | 0.00 | 0.00 | 0.00 | 47 | 1016.1 |
| 20260904092018 | 85 | 16 | 10.4 | 24.3 | 0.00 | 0.00 | 0.00 | 49 | 1015.8 |
| 20260904091026 | 85 | 22 | 10.4 | 21.7 | 0.00 | 0.00 | 0.00 | 50 | 1015.9 |
| 20260904090019 | 85 | 57 | 6.1 | 13.0 | 0.00 | 0.00 | 0.00 | 47 | 1016.0 |
| 20260904085046 | 84 | 19 | 7.0 | 14.8 | 0.00 | 0.00 | 0.00 | 50 | 1016.0 |
| 20260904084018 | 84 | 11 | 11.3 | 24.3 | 0.00 | 0.00 | 0.00 | 50 | 1016.0 |
| 20260904083027 | 84 | 22 | 5.2 | 13.0 | 0.00 | 0.00 | 0.00 | 51 | 1016.0 |
| 20260904082039 | 85 | 9 | 7.8 | 17.4 | 0.00 | 0.00 | 0.00 | 52 | 1016.0 |
| 20260904081027 | 85 | 24 | 5.2 | 17.4 | 0.00 | 0.00 | 0.00 | 50 | 1015.9 |
| 20260904080018 | 85 | 91 | 4.3 | 17.4 | 0.00 | 0.00 | 0.00 | 49 | 1015.7 |
| 20260904075026 | 84 | 18 | 6.1 | 13.0 | 0.00 | 0.00 | 0.00 | 50 | 1015.7 |
| 20260904074018 | 84 | 7 | 5.2 | 14.8 | 0.00 | 0.00 | 0.00 | 50 | 1015.7 |
| 20260904073026 | 84 | 61 | 5.2 | 14.8 | 0.00 | 0.00 | 0.00 | 50 | 1015.7 |
| 20260904072019 | 83 | 14 | 5.2 | 13.0 | 0.00 | 0.00 | 0.00 | 50 | 1015.7 |
| 20260904071027 | 83 | 7 | 8.7 | 20.0 | 0.00 | 0.00 | 0.00 | 50 | 1015.6 |
| 20260904070038 | 83 | 8 | 6.1 | 13.0 | 0.00 | 0.00 | 0.00 | 49 | 1015.4 |
| 20260904065046 | 83 | 18 | 7.8 | 14.8 | 0.00 | 0.00 | 0.00 | 49 | 1015.2 |
| 20260904064019 | 83 | 25 | 7.8 | 20.0 | 0.00 | 0.00 | 0.00 | 48 | 1015.1 |
| 20260904063027 | 83 | 16 | 6.1 | 13.0 | 0.00 | 0.00 | 0.00 | 49 | 1015.0 |
| 20260904062039 | 83 | 49 | 2.6 | 8.7 | 0.00 | 0.00 | 0.00 | 49 | 1014.9 |
| 20260904061026 | 82 | 11 | 7.0 | 14.8 | 0.00 | 0.00 | 0.00 | 49 | 1015.0 |
| 20260904060038 | 82 | 12 | 5.2 | 13.0 | 0.00 | 0.00 | 0.00 | 49 | 1015.0 |
| 20260904055026 | 82 | 13 | 3.5 | 14.8 | 0.00 | 0.00 | 0.00 | 48 | 1015.1 |
| 20260904054019 | 82 | 359 | 0.9 | 4.3 | 0.00 | 0.00 | 0.00 | 48 | 1015.1 |
| 20260904053026 | 82 | 335 | 0.0 | 4.3 | 0.00 | 0.00 | 0.00 | 50 | 1015.0 |
| 20260904052039 | 81 | 148 | 0.9 | 7.0 | 0.00 | 0.00 | 0.00 | 51 | 1014.8 |
| 20260904051026 | 80 | 0.0 | 0.0 | 0.00 | 0.00 | 0.00 | 52 | 1014.7 | |
| 20260904050018 | 78 | 0.0 | 0.0 | 0.00 | 0.00 | 0.00 | 55 | 1015.0 | |
| 20260904045026 | 77 | 0.0 | 0.0 | 0.00 | 0.00 | 0.00 | 56 | 1014.8 | |
| 20260904044038 | 76 | 0.0 | 0.0 | 0.00 | 0.00 | 0.00 | 58 | 1014.9 | |
| 20260904043027 | 76 | 0.0 | 0.0 | 0.00 | 0.00 | 0.00 | 59 | 1014.8 | |
| 20260904042038 | 76 | 214 | 0.9 | 4.3 | 0.00 | 0.00 | 0.00 | 58 | 1014.9 |
| 20260904041026 | 76 | 175 | 0.9 | 4.3 | 0.00 | 0.00 | 0.00 | 58 | 1014.6 |
| 20260904040018 | 76 | 0.0 | 0.0 | 0.00 | 0.00 | 0.00 | 57 | 1014.6 | |
| 20260904035026 | 77 | 0.0 | 0.0 | 0.00 | 0.00 | 0.00 | 56 | 1014.6 | |
| 20260904034018 | 77 | 0.0 | 0.0 | 0.00 | 0.00 | 0.00 | 55 | 1014.6 | |
| 20260904033047 | 77 | 0.0 | 0.0 | 0.00 | 0.00 | 0.00 | 55 | 1014.6 | |
| 20260904032018 | 77 | 133 | 1.7 | 7.0 | 0.00 | 0.00 | 0.00 | 54 | 1014.6 |
| 20260904031026 | 76 | 0.0 | 0.0 | 0.00 | 0.00 | 0.00 | 55 | 1014.6 | |
| 20260904030018 | 76 | 134 | 0.9 | 4.3 | 0.00 | 0.00 | 0.00 | 54 | 1014.6 |
| 20260904025026 | 76 | 0.0 | 0.0 | 0.00 | 0.00 | 0.00 | 55 | 1014.6 | |
| 20260904024038 | 76 | 0.0 | 0.0 | 0.00 | 0.00 | 0.00 | 56 | 1014.6 | |
| 20260904023026 | 76 | 0.0 | 0.0 | 0.00 | 0.00 | 0.00 | 56 | 1014.7 | |
| 20260904022018 | 76 | 0.0 | 0.0 | 0.00 | 0.00 | 0.00 | 56 | 1014.6 | |
| 20260904021026 | 76 | 0.0 | 0.0 | 0.00 | 0.00 | 0.00 | 56 | 1014.7 | |
| 20260904020018 | 76 | 0.0 | 0.0 | 0.00 | 0.00 | 0.00 | 55 | 1014.7 | |
| 20260904015046 | 76 | 0.0 | 0.0 | 0.00 | 0.00 | 0.00 | 55 | 1014.7 | |
| 20260904014018 | 76 | 0.0 | 0.0 | 0.00 | 0.00 | 0.00 | 54 | 1014.7 | |
| 20260904013026 | 77 | 0.0 | 0.0 | 0.00 | 0.00 | 0.00 | 53 | 1014.7 | |
| 20260904012018 | 77 | 0.0 | 0.0 | 0.00 | 0.00 | 0.00 | 53 | 1014.7 | |
| 20260904011026 | 77 | 173 | 0.9 | 4.3 | 0.00 | 0.00 | 0.00 | 53 | 1014.6 |
| 20260904010018 | 77 | 172 | 0.0 | 1.7 | 0.00 | 0.00 | 0.00 | 53 | 1014.6 |
| 20260904005026 | 77 | 133 | 0.0 | 1.7 | 0.00 | 0.00 | 0.00 | 53 | 1014.5 |
| 20260904004040 | 77 | 0.0 | 0.0 | 0.00 | 0.00 | 0.00 | 53 | 1014.4 | |
| 20260904003026 | 78 | 141 | 0.0 | 1.7 | 0.00 | 0.00 | 0.00 | 52 | 1014.4 |
| 20260904002018 | 78 | 0.0 | 0.0 | 0.00 | 0.00 | 0.00 | 51 | 1014.6 | |
| 20260904001026 | 78 | 0.0 | 0.0 | 0.00 | 0.00 | 0.00 | 51 | 1014.7 | |
| 20260904000018 | 78 | 120 | 0.0 | 4.3 | 0.00 | 0.00 | 0.00 | 50 | 1014.6 |
| 20260903235046 | 78 | 134 | 0.0 | 4.3 | 0.00 | 0.00 | 0.00 | 50 | 1014.7 |